Location: Matera
(40.6670°N, 16.6000°E)
Time: 07:36:21
(UTC+01:00)

ISS - Pass Details

Date: 29 January 2019
Orbit: 403 x 411 km, 51.6° (Epoch: 18 February)

Event Time Altitude Azimuth Distance (km) Brightness Sun altitude
Rises 18:16:29 0° 286° (WNW) 2,331 1.2 -13.3°
Reaches altitude 10° 18:19:16 10° 312° (NW) 1,474 -0.5 -13.9°
Maximum altitude 18:21:14 15° 348° (NNW) 1,223 -1.4 -14.2°
Enters shadow 18:22:46 12° 18° (NNE) 1,384 -1.4 -14.5°
